Regional Weather Roundup
Issued by NWS

Home | Current Version | Previous Version | Graphics & Text | Print | Product List | Glossary On
Versions: 1 2 3 4 5 6 7 8 9 10 11 12 13 14 15 16 17 18 19 20 21 22 23 24 25 26 27 28 29 30 31 32 33 34 35 36 37 38 39 40 41 42 43 44 45 46 47 48 49 50
000
ASUS44 KMEG 031200
RWRTN
TENNESSEE HOURLY STATE WEATHER ROUNDUP
NATIONAL WEATHER SERVICE MEMPHIS TN
600 AM CST SAT DEC 03 2016

TNZ002-004-019-021-049-052-054-088>092-031300-
WEST TENNESSEE

CITY           SKY/WX    TMP DP  RH WIND       PRES   REMARKS
MEMPHIS INTL   CLOUDY    47  32  56 E8        30.29
NWS MEMPHIS      N/A     45 N/A N/A MISG        N/A
JACKSON        CLOUDY    43  33  68 E7        30.33F
DYERSBURG      CLOUDY   N/A N/A N/A E5        30.33F
UNION CITY     CLEAR     37  34  87 CALM      30.34S
PARIS          CLEAR     36  30  80 CALM      30.36R
LEXINGTON      CLEAR     39  32  75 N5        30.33F
$$

TNZ008-025-027-028-033-062-065-066-031300-
NORTH MIDDLE TENNESSEE

CITY           SKY/WX    TMP DP  RH WIND       PRES   REMARKS
NASHVILLE      CLOUDY    37  30  75 CALM      30.36R
CLARKSVILLE    CLOUDY    33  29  85 CALM      30.37
SMYRNA         CLOUDY    36  32  85 CALM      30.37R
CROSSVILLE     CLOUDY    32  27  81 N3        30.30R
$$

TNZ061-075-076-078-094-096-097-031300-
SOUTH MIDDLE TENNESSEE

CITY           SKY/WX    TMP DP  RH WIND       PRES   REMARKS
TULLAHOMA      CLEAR     36  30  80 CALM      30.32S
WINCHESTER     CLEAR     32  32 100 CALM      30.32S
MCMINNVILLE    CLEAR     32  30  93 CALM      30.32R
SHELBYVILLE    CLEAR     36  34  93 N3        30.35R
$$

TNZ017-018-042-046-047-031300-
NORTHEAST TENNESSEE

CITY           SKY/WX    TMP DP  RH WIND       PRES   REMARKS
TRI CITIES     CLOUDY    33  30  88 CALM      30.31R
$$

TNZ012-013-036-069-073-074-031300-
CENTRAL EAST TENNESSEE

CITY           SKY/WX    TMP DP  RH WIND       PRES   REMARKS
KNOXVILLE      PTCLDY    34  29  82 NE5       30.30R WCI  30
OAK RIDGE      CLEAR     36  28  73 CALM      30.33R
GATLINBURG     CLEAR     27  27 100 CALM      30.30R
$$

TNZ083-085-099-031300-
SOUTHEAST TENNESSEE

CITY           SKY/WX    TMP DP  RH WIND       PRES   REMARKS
CHATTANOOGA    MOCLDY    37  31  78 NW7       30.33R WCI  32
$$

SKY/WX REPORTED AS FAIR MEANS FEW OR NO CLOUDS BELOW
12 THOUSAND FEET.




USA.gov is the U.S. government's official web portal to all federal, state and local government web resources and services.